Location: Drebach
(50.6670°N, 13.0330°E)
Time: 06:36:25
(UTC+01:00)

ISS - Pass Details

Date: 29 January 2021
Orbit: 417 x 422 km, 51.6° (Epoch: 08 March)

Event Time Altitude Azimuth Distance (km) Brightness Sun altitude
Rises 19:38:22 0° 285° (WNW) 2,376 1.3 -25.8°
Reaches altitude 10° 19:40:29 10° 282° (WNW) 1,510 0.1 -26.1°
Enters shadow 19:42:13 28° 275° (W) 838 -1.6 -26.4°
